User: anonymous
Location: Unspecified
(0.0000°N, 0.0000°E)
Time: 11:26:10
(UTC+02:00)
Language:

Atlas Centaur 2 - Orbit

View from above orbital plane
View from above orbital plane
View from above satellite
View from above satellite

Ground track
Ground track

The orbit data is extracted from the following two-line orbital elements,

1 00694U 63047A   14257.60839787  .00003888  00000-0  50730-3 0  5896
2 00694 030.3603 296.2251 0597350 308.9809 194.1768 13.99788203541421
Epoch (UTC): 14 September 2014 14:36:05
Eccentricity: 0.0597350
inclination: 30.3603°
perigee height: 460 km
apogee height: 1329 km
right ascension of ascending node: 296.2251°
argument of perigee: 308.9809°
revolutions per day: 13.99788203
mean anomaly at epoch: 194.1768°
orbit number at epoch: 54142

The dashed part of the orbit path shows where the satellite is in the earth's shadow,  

DLR